User: anonymous   Login
Location: Great Malvern
(52.1167°N, 2.3167°W)
Time: 04:40:05
(UTC+00:00)
Language:

Cosmos 1842 - Orbit

View from above orbital plane
View from above orbital plane
View from above satellite
View from above satellite

Ground track
Ground track

The orbit data is extracted from the following two-line orbital elements,

1 17911U 87038A   20337.20731142  .00000765  00000-0  42303-4 0  9994
2 17911  82.5230  36.3478 0010522 202.0517 158.0263 15.12393002832496
Epoch (UTC): 02 December 2020 04:58:31
Eccentricity: 0.0010522
inclination: 82.5230°
perigee height: 521 km
apogee height: 536 km
right ascension of ascending node: 36.3478°
argument of perigee: 202.0517°
revolutions per day: 15.12393002
mean anomaly at epoch: 158.0263°
orbit number at epoch: 83249

The dashed part of the orbit path shows where the satellite is in the earth's shadow,  

DLR